Year,Month,Day,Hour,Minute,Value (Times are PST for temperature in C)
2014,04,26,00,00,4.80
2014,04,26,00,01,4.80
2014,04,26,00,02,4.70
2014,04,26,00,03,4.70
2014,04,26,00,04,4.70
2014,04,26,00,05,4.70
2014,04,26,00,06,4.70
2014,04,26,00,07,4.70
2014,04,26,00,08,4.70
2014,04,26,00,09,4.70
2014,04,26,00,10,4.70
2014,04,26,00,11,4.60
2014,04,26,00,12,4.60
2014,04,26,00,13,4.60
2014,04,26,00,14,4.60
2014,04,26,00,15,4.60
2014,04,26,00,16,4.60
2014,04,26,00,17,4.60
2014,04,26,00,18,4.60
2014,04,26,00,19,4.60
2014,04,26,00,20,4.50
2014,04,26,00,21,4.50
2014,04,26,00,22,4.50
2014,04,26,00,23,4.50
2014,04,26,00,24,4.50
2014,04,26,00,25,4.50
2014,04,26,00,26,4.40
2014,04,26,00,27,4.40
2014,04,26,00,28,4.40
2014,04,26,00,29,4.40
2014,04,26,00,30,4.40
2014,04,26,00,31,4.40
2014,04,26,00,32,4.40
2014,04,26,00,33,4.40
2014,04,26,00,34,4.40
2014,04,26,00,35,4.40
2014,04,26,00,36,4.40
2014,04,26,00,37,4.40
2014,04,26,00,38,4.40
2014,04,26,00,39,4.30
2014,04,26,00,40,4.30
2014,04,26,00,41,4.30
2014,04,26,00,42,4.30
2014,04,26,00,43,4.30
2014,04,26,00,44,4.30
2014,04,26,00,45,4.30
2014,04,26,00,46,4.30
2014,04,26,00,47,4.30
2014,04,26,00,48,4.30
2014,04,26,00,49,4.30
2014,04,26,00,50,4.30
2014,04,26,00,51,4.30
2014,04,26,00,52,4.30
2014,04,26,00,53,4.30
2014,04,26,00,54,4.30
2014,04,26,00,55,4.30
2014,04,26,00,56,4.30
2014,04,26,00,57,4.30
2014,04,26,00,58,4.30
2014,04,26,00,59,4.30
2014,04,26,01,00,4.30
2014,04,26,01,01,4.20
2014,04,26,01,02,4.20
2014,04,26,01,03,4.20
2014,04,26,01,04,4.20
2014,04,26,01,05,4.20
2014,04,26,01,06,4.20
2014,04,26,01,07,4.20
2014,04,26,01,08,4.20
2014,04,26,01,09,4.20
2014,04,26,01,10,4.20
2014,04,26,01,11,4.20
2014,04,26,01,12,4.20
2014,04,26,01,13,4.20
2014,04,26,01,14,4.20
2014,04,26,01,15,4.20
2014,04,26,01,16,4.20
2014,04,26,01,17,4.10
2014,04,26,01,18,4.10
2014,04,26,01,19,4.10
2014,04,26,01,20,4.10
2014,04,26,01,21,4.10
2014,04,26,01,22,4.10
2014,04,26,01,23,4.10
2014,04,26,01,24,4.10
2014,04,26,01,25,4.10
2014,04,26,01,26,4.10
2014,04,26,01,27,4.10
2014,04,26,01,28,4.10
2014,04,26,01,29,4.10
2014,04,26,01,30,4.10
2014,04,26,01,31,4.10
2014,04,26,01,32,4.10
2014,04,26,01,33,4.00
2014,04,26,01,34,4.00
2014,04,26,01,35,4.00
2014,04,26,01,36,4.00
2014,04,26,01,37,4.00
2014,04,26,01,38,4.00
2014,04,26,01,39,4.00
2014,04,26,01,40,4.00
2014,04,26,01,41,4.00
2014,04,26,01,42,4.00
2014,04,26,01,43,3.90
2014,04,26,01,44,3.90
2014,04,26,01,45,3.90
2014,04,26,01,46,3.90
2014,04,26,01,47,3.90
2014,04,26,01,48,3.90
2014,04,26,01,49,3.90
2014,04,26,01,50,3.90
2014,04,26,01,51,3.90
2014,04,26,01,52,3.90
2014,04,26,01,53,3.90
2014,04,26,01,54,3.80
2014,04,26,01,55,3.80
2014,04,26,01,56,3.80
2014,04,26,01,57,3.80
2014,04,26,01,58,3.80
2014,04,26,01,59,3.80
2014,04,26,02,00,3.80
2014,04,26,02,01,3.80
2014,04,26,02,02,3.80
2014,04,26,02,03,3.80
2014,04,26,02,04,3.80
2014,04,26,02,05,3.80
2014,04,26,02,06,3.80
2014,04,26,02,07,3.80
2014,04,26,02,08,3.80
2014,04,26,02,09,3.70
2014,04,26,02,10,3.70
2014,04,26,02,11,3.70
2014,04,26,02,12,3.70
2014,04,26,02,13,3.70
2014,04,26,02,14,3.70
2014,04,26,02,15,3.70
2014,04,26,02,16,3.70
2014,04,26,02,17,3.70
2014,04,26,02,18,3.70
2014,04,26,02,19,3.70
2014,04,26,02,20,3.70
2014,04,26,02,21,3.70
2014,04,26,02,22,3.70
2014,04,26,02,23,3.70
2014,04,26,02,24,3.70
2014,04,26,02,25,3.70
2014,04,26,02,26,3.70
2014,04,26,02,27,3.70
2014,04,26,02,28,3.70
2014,04,26,02,29,3.70
2014,04,26,02,30,3.70
2014,04,26,02,31,3.70
2014,04,26,02,32,3.70
2014,04,26,02,33,3.70
2014,04,26,02,34,3.70
2014,04,26,02,35,3.70
2014,04,26,02,36,3.70
2014,04,26,02,37,3.70
2014,04,26,02,38,3.70
2014,04,26,02,39,3.70
2014,04,26,02,40,3.70
2014,04,26,02,41,3.70
2014,04,26,02,42,3.70
2014,04,26,02,43,3.70
2014,04,26,02,44,3.70
2014,04,26,02,45,3.70
2014,04,26,02,46,3.70
2014,04,26,02,47,3.70
2014,04,26,02,48,3.70
2014,04,26,02,49,3.70
2014,04,26,02,50,3.70
2014,04,26,02,51,3.70
2014,04,26,02,52,3.70
2014,04,26,02,53,3.70
2014,04,26,02,54,3.70
2014,04,26,02,55,3.70
2014,04,26,02,56,3.70
2014,04,26,02,57,3.70
2014,04,26,02,58,3.70
2014,04,26,02,59,3.70
2014,04,26,03,00,3.70
2014,04,26,03,01,3.70
2014,04,26,03,02,3.70
2014,04,26,03,03,3.70
2014,04,26,03,04,3.70
2014,04,26,03,05,3.70
2014,04,26,03,06,3.70
2014,04,26,03,07,3.70
2014,04,26,03,08,3.70
2014,04,26,03,09,3.70
2014,04,26,03,10,3.70
2014,04,26,03,11,3.70
2014,04,26,03,12,3.70
2014,04,26,03,13,3.70
2014,04,26,03,14,3.70
2014,04,26,03,15,3.70
2014,04,26,03,16,3.70
2014,04,26,03,17,3.70
2014,04,26,03,18,3.70
2014,04,26,03,19,3.70
2014,04,26,03,20,3.70
2014,04,26,03,21,3.70
2014,04,26,03,22,3.70
2014,04,26,03,23,3.70
2014,04,26,03,24,3.70
2014,04,26,03,25,3.70
2014,04,26,03,26,3.70
2014,04,26,03,27,3.70
2014,04,26,03,28,3.70
2014,04,26,03,29,3.70
2014,04,26,03,30,3.70
2014,04,26,03,31,3.70
2014,04,26,03,32,3.70
2014,04,26,03,33,3.70
2014,04,26,03,34,3.70
2014,04,26,03,35,3.70
2014,04,26,03,36,3.70
2014,04,26,03,37,3.70
2014,04,26,03,38,3.70
2014,04,26,03,39,3.70
2014,04,26,03,40,3.70
2014,04,26,03,41,3.60
2014,04,26,03,42,3.70
2014,04,26,03,43,3.60
2014,04,26,03,44,3.70
2014,04,26,03,45,3.60
2014,04,26,03,46,3.60
2014,04,26,03,47,3.60
2014,04,26,03,48,3.60
2014,04,26,03,49,3.60
2014,04,26,03,50,3.60
2014,04,26,03,51,3.70
2014,04,26,03,52,3.70
2014,04,26,03,53,3.70
2014,04,26,03,54,3.70
2014,04,26,03,55,3.70
2014,04,26,03,56,3.70
2014,04,26,03,57,3.70
2014,04,26,03,58,3.70
2014,04,26,03,59,3.70
2014,04,26,04,00,3.70
2014,04,26,04,01,3.70
2014,04,26,04,02,3.70
2014,04,26,04,03,3.70
2014,04,26,04,04,3.70
2014,04,26,04,05,3.70
2014,04,26,04,06,3.70
2014,04,26,04,07,3.70
2014,04,26,04,08,3.70
2014,04,26,04,09,3.70
2014,04,26,04,10,3.70
2014,04,26,04,11,3.70
2014,04,26,04,12,3.70
2014,04,26,04,13,3.70
2014,04,26,04,14,3.70
2014,04,26,04,15,3.70
2014,04,26,04,16,3.70
2014,04,26,04,17,3.70
2014,04,26,04,18,3.70
2014,04,26,04,19,3.70
2014,04,26,04,20,3.70
2014,04,26,04,21,3.70
2014,04,26,04,22,3.60
2014,04,26,04,23,3.60
2014,04,26,04,24,3.60
2014,04,26,04,25,3.60
2014,04,26,04,26,3.60
2014,04,26,04,27,3.60
2014,04,26,04,28,3.50
2014,04,26,04,29,3.50
2014,04,26,04,30,3.50
2014,04,26,04,31,3.50
2014,04,26,04,32,3.40
2014,04,26,04,33,3.40
2014,04,26,04,34,3.40
2014,04,26,04,35,3.40
2014,04,26,04,36,3.40
2014,04,26,04,37,3.40
2014,04,26,04,38,3.40
2014,04,26,04,39,3.40
2014,04,26,04,40,3.40
2014,04,26,04,41,3.40
2014,04,26,04,42,3.40
2014,04,26,04,43,3.40
2014,04,26,04,44,3.40
2014,04,26,04,45,3.40
2014,04,26,04,46,3.40
2014,04,26,04,47,3.40
2014,04,26,04,48,3.30
2014,04,26,04,49,3.30
2014,04,26,04,50,3.30
2014,04,26,04,51,3.30
2014,04,26,04,52,3.30
2014,04,26,04,53,3.30
2014,04,26,04,54,3.30
2014,04,26,04,55,3.30
2014,04,26,04,56,3.30
2014,04,26,04,57,3.30
2014,04,26,04,58,3.30
2014,04,26,04,59,3.30
2014,04,26,05,00,3.30
2014,04,26,05,01,3.30
2014,04,26,05,02,3.20
2014,04,26,05,03,3.20
2014,04,26,05,04,3.20
2014,04,26,05,05,3.20
2014,04,26,05,06,3.20
2014,04,26,05,07,3.20
2014,04,26,05,08,3.20
2014,04,26,05,09,3.20
2014,04,26,05,10,3.20
2014,04,26,05,11,3.20
2014,04,26,05,12,3.20
2014,04,26,05,13,3.20
2014,04,26,05,14,3.20
2014,04,26,05,15,3.20
2014,04,26,05,16,3.20
2014,04,26,05,17,3.20
2014,04,26,05,18,3.20
2014,04,26,05,19,3.20
2014,04,26,05,20,3.20
2014,04,26,05,21,3.20
2014,04,26,05,22,3.20
2014,04,26,05,23,3.20
2014,04,26,05,24,3.20
2014,04,26,05,25,3.20
2014,04,26,05,26,3.20
2014,04,26,05,27,3.20
2014,04,26,05,28,3.20
2014,04,26,05,29,3.20
2014,04,26,05,30,3.20
2014,04,26,05,31,3.20
2014,04,26,05,32,3.20
2014,04,26,05,33,3.20
2014,04,26,05,34,3.20
2014,04,26,05,35,3.20
2014,04,26,05,36,3.20
2014,04,26,05,37,3.20
2014,04,26,05,38,3.20
2014,04,26,05,39,3.20
2014,04,26,05,40,3.20
2014,04,26,05,41,3.20
2014,04,26,05,42,3.20
2014,04,26,05,43,3.10
2014,04,26,05,44,3.10
2014,04,26,05,45,3.10
2014,04,26,05,46,3.10
2014,04,26,05,47,3.10
2014,04,26,05,48,3.10
2014,04,26,05,49,3.10
2014,04,26,05,50,3.10
2014,04,26,05,51,3.10
2014,04,26,05,52,3.10
2014,04,26,05,53,3.10
2014,04,26,05,54,3.10
2014,04,26,05,55,3.10
2014,04,26,05,56,3.10
2014,04,26,05,57,3.10
2014,04,26,05,58,3.10
2014,04,26,05,59,3.10
2014,04,26,06,00,3.10
2014,04,26,06,01,3.10
2014,04,26,06,02,3.10
2014,04,26,06,03,3.10
2014,04,26,06,04,3.10
2014,04,26,06,05,3.10
2014,04,26,06,06,3.10
2014,04,26,06,07,3.10
2014,04,26,06,08,3.00
2014,04,26,06,09,3.00
2014,04,26,06,10,3.00
2014,04,26,06,11,3.00
2014,04,26,06,12,3.00
2014,04,26,06,13,2.90
2014,04,26,06,14,2.90
2014,04,26,06,15,2.90
2014,04,26,06,16,2.90
2014,04,26,06,17,2.90
2014,04,26,06,18,2.90
2014,04,26,06,19,2.90
2014,04,26,06,20,2.90
2014,04,26,06,21,2.90
2014,04,26,06,22,2.90
2014,04,26,06,23,2.90
2014,04,26,06,24,2.90
2014,04,26,06,25,2.90
2014,04,26,06,26,2.90
2014,04,26,06,27,2.90
2014,04,26,06,28,2.90
2014,04,26,06,29,2.90
2014,04,26,06,30,2.90
2014,04,26,06,31,2.90
2014,04,26,06,32,2.90
2014,04,26,06,33,2.90
2014,04,26,06,34,2.90
2014,04,26,06,35,2.90
2014,04,26,06,36,2.90
2014,04,26,06,37,3.00
2014,04,26,06,38,3.00
2014,04,26,06,39,3.00
2014,04,26,06,40,3.00
2014,04,26,06,41,3.10
2014,04,26,06,42,3.10
2014,04,26,06,43,3.10
2014,04,26,06,44,3.10
2014,04,26,06,45,3.10
2014,04,26,06,46,3.20
2014,04,26,06,47,3.20
2014,04,26,06,48,3.20
2014,04,26,06,49,3.30
2014,04,26,06,50,3.30
2014,04,26,06,51,3.30
2014,04,26,06,52,3.40
2014,04,26,06,53,3.40
2014,04,26,06,54,3.50
2014,04,26,06,55,3.50
2014,04,26,06,56,3.60
2014,04,26,06,57,3.60
2014,04,26,06,58,3.60
2014,04,26,06,59,3.60
2014,04,26,07,00,3.70
2014,04,26,07,01,3.70
2014,04,26,07,02,3.80
2014,04,26,07,03,3.80
2014,04,26,07,04,3.80
2014,04,26,07,05,3.80
2014,04,26,07,06,3.80
2014,04,26,07,07,3.90
2014,04,26,07,08,3.90
2014,04,26,07,09,3.90
2014,04,26,07,10,4.00
2014,04,26,07,11,4.00
2014,04,26,07,12,4.00
2014,04,26,07,13,4.10
2014,04,26,07,14,4.10
2014,04,26,07,15,4.20
2014,04,26,07,16,4.20
2014,04,26,07,17,4.30
2014,04,26,07,18,4.40
2014,04,26,07,19,4.40
2014,04,26,07,20,4.50
2014,04,26,07,21,4.50
2014,04,26,07,22,4.60
2014,04,26,07,23,4.60
2014,04,26,07,24,4.70
2014,04,26,07,25,4.70
2014,04,26,07,26,4.70
2014,04,26,07,27,4.80
2014,04,26,07,28,4.80
2014,04,26,07,29,4.80
2014,04,26,07,30,4.80
2014,04,26,07,31,4.80
2014,04,26,07,32,4.90
2014,04,26,07,33,4.90
2014,04,26,07,34,4.90
2014,04,26,07,35,4.90
2014,04,26,07,36,4.90
2014,04,26,07,37,5.00
2014,04,26,07,38,5.00
2014,04,26,07,39,5.00
2014,04,26,07,40,5.10
2014,04,26,07,41,5.10
2014,04,26,07,42,5.10
2014,04,26,07,43,5.20
2014,04,26,07,44,5.20
2014,04,26,07,45,5.30
2014,04,26,07,46,5.30
2014,04,26,07,47,5.40
2014,04,26,07,48,5.50
2014,04,26,07,49,5.50
2014,04,26,07,50,5.60
2014,04,26,07,51,5.60
2014,04,26,07,52,5.70
2014,04,26,07,53,5.70
2014,04,26,07,54,5.80
2014,04,26,07,55,5.90
2014,04,26,07,56,5.90
2014,04,26,07,57,6.00
2014,04,26,07,58,6.10
2014,04,26,07,59,6.10
2014,04,26,08,00,6.20
2014,04,26,08,01,6.40
2014,04,26,08,02,6.50
2014,04,26,08,03,6.60
2014,04,26,08,04,6.70
2014,04,26,08,05,6.70
2014,04,26,08,06,6.80
2014,04,26,08,07,6.90
2014,04,26,08,08,6.90
2014,04,26,08,09,6.90
2014,04,26,08,10,7.00
2014,04,26,08,11,7.00
2014,04,26,08,12,7.10
2014,04,26,08,13,7.10
2014,04,26,08,14,7.20
2014,04,26,08,15,7.20
2014,04,26,08,16,7.20
2014,04,26,08,17,7.20
2014,04,26,08,18,7.20
2014,04,26,08,19,7.30
2014,04,26,08,20,7.30
2014,04,26,08,21,7.30
2014,04,26,08,22,7.30
2014,04,26,08,23,7.30
2014,04,26,08,24,7.40
2014,04,26,08,25,7.40
2014,04,26,08,26,7.40
2014,04,26,08,27,7.40
2014,04,26,08,28,7.40
2014,04,26,08,29,7.50
2014,04,26,08,30,7.50
2014,04,26,08,31,7.60
2014,04,26,08,32,7.70
2014,04,26,08,33,7.70
2014,04,26,08,34,7.80
2014,04,26,08,35,7.90
2014,04,26,08,36,8.00
2014,04,26,08,37,8.00
2014,04,26,08,38,8.10
2014,04,26,08,39,8.20
2014,04,26,08,40,8.20
2014,04,26,08,41,8.30
2014,04,26,08,42,8.40
2014,04,26,08,43,8.40
2014,04,26,08,44,8.50
2014,04,26,08,45,8.60
2014,04,26,08,46,8.70
2014,04,26,08,47,8.80
2014,04,26,08,48,8.80
2014,04,26,08,49,8.90
2014,04,26,08,50,9.00
2014,04,26,08,51,9.00
2014,04,26,08,52,9.10
2014,04,26,08,53,9.10
2014,04,26,08,54,9.10
2014,04,26,08,55,9.10
2014,04,26,08,56,9.20
2014,04,26,08,57,9.20
2014,04,26,08,58,9.20
2014,04,26,08,59,9.30
2014,04,26,09,00,9.30
2014,04,26,09,01,9.30
2014,04,26,09,02,9.40
2014,04,26,09,03,9.40
2014,04,26,09,04,9.50
2014,04,26,09,05,9.50
2014,04,26,09,06,9.50
2014,04,26,09,07,9.60
2014,04,26,09,08,9.60
2014,04,26,09,09,9.60
2014,04,26,09,10,9.70
2014,04,26,09,11,9.70
2014,04,26,09,12,9.70
2014,04,26,09,13,9.70
2014,04,26,09,14,9.80
2014,04,26,09,15,9.80
2014,04,26,09,16,9.90
2014,04,26,09,17,9.90
2014,04,26,09,18,10.00
2014,04,26,09,19,10.00
2014,04,26,09,20,10.00
2014,04,26,09,21,10.10
2014,04,26,09,22,10.10
2014,04,26,09,23,10.10
2014,04,26,09,24,10.20
2014,04,26,09,25,10.20
2014,04,26,09,26,10.30
2014,04,26,09,27,10.30
2014,04,26,09,28,10.30
2014,04,26,09,29,10.30
2014,04,26,09,30,10.30
2014,04,26,09,31,10.30
2014,04,26,09,32,10.30
2014,04,26,09,33,10.30
2014,04,26,09,34,10.40
2014,04,26,09,35,10.40
2014,04,26,09,36,10.40
2014,04,26,09,37,10.40
2014,04,26,09,38,10.40
2014,04,26,09,39,10.40
2014,04,26,09,40,10.40
2014,04,26,09,41,10.40
2014,04,26,09,42,10.40
2014,04,26,09,43,10.40
2014,04,26,09,44,10.40
2014,04,26,09,45,10.50
2014,04,26,09,46,10.50
2014,04,26,09,47,10.50
2014,04,26,09,48,10.60
2014,04,26,09,49,10.70
2014,04,26,09,50,10.70
2014,04,26,09,51,10.70
2014,04,26,09,52,10.80
2014,04,26,09,53,10.80
2014,04,26,09,54,10.70
2014,04,26,09,55,10.70
2014,04,26,09,56,10.60
2014,04,26,09,57,10.50
2014,04,26,09,58,10.50
2014,04,26,09,59,10.40
2014,04,26,10,00,10.30
2014,04,26,10,01,10.30
2014,04,26,10,02,10.30
2014,04,26,10,03,10.20
2014,04,26,10,04,10.30
2014,04,26,10,05,10.30
2014,04,26,10,06,10.30
2014,04,26,10,07,10.40
2014,04,26,10,08,10.40
2014,04,26,10,09,10.50
2014,04,26,10,10,10.50
2014,04,26,10,11,10.60
2014,04,26,10,12,10.60
2014,04,26,10,13,10.60
2014,04,26,10,14,10.60
2014,04,26,10,15,10.60
2014,04,26,10,16,10.60
2014,04,26,10,17,10.70
2014,04,26,10,18,10.70
2014,04,26,10,19,10.70
2014,04,26,10,20,10.80
2014,04,26,10,21,10.80
2014,04,26,10,22,10.80
2014,04,26,10,23,10.80
2014,04,26,10,24,10.80
2014,04,26,10,25,10.90
2014,04,26,10,26,10.90
2014,04,26,10,27,11.00
2014,04,26,10,28,11.00
2014,04,26,10,29,11.10
2014,04,26,10,30,11.10
2014,04,26,10,31,11.20
2014,04,26,10,32,11.20
2014,04,26,10,33,11.20
2014,04,26,10,34,11.20
2014,04,26,10,35,11.20
2014,04,26,10,36,11.10
2014,04,26,10,37,11.10
2014,04,26,10,38,11.10
2014,04,26,10,39,11.10
2014,04,26,10,40,11.10
2014,04,26,10,41,11.10
2014,04,26,10,42,11.10
2014,04,26,10,43,11.10
2014,04,26,10,44,11.10
2014,04,26,10,45,11.10
2014,04,26,10,46,11.10
2014,04,26,10,47,11.10
2014,04,26,10,48,11.10
2014,04,26,10,49,11.10
2014,04,26,10,50,11.10
2014,04,26,10,51,11.10
2014,04,26,10,52,11.10
2014,04,26,10,53,11.10
2014,04,26,10,54,11.10
2014,04,26,10,55,11.10
2014,04,26,10,56,11.20
2014,04,26,10,57,11.40
2014,04,26,10,58,11.50
2014,04,26,10,59,11.70
2014,04,26,11,00,11.80
2014,04,26,11,01,12.00
2014,04,26,11,02,12.00
2014,04,26,11,03,12.10
2014,04,26,11,04,12.10
2014,04,26,11,05,12.20
2014,04,26,11,06,12.20
2014,04,26,11,07,12.20
2014,04,26,11,08,12.10
2014,04,26,11,09,12.00
2014,04,26,11,10,11.90
2014,04,26,11,11,11.70
2014,04,26,11,12,11.60
2014,04,26,11,13,11.60
2014,04,26,11,14,11.60
2014,04,26,11,15,11.60
2014,04,26,11,16,11.60
2014,04,26,11,17,11.60
2014,04,26,11,18,11.50
2014,04,26,11,19,11.40
2014,04,26,11,20,11.30
2014,04,26,11,21,11.30
2014,04,26,11,22,11.30
2014,04,26,11,23,11.20
2014,04,26,11,24,11.20
2014,04,26,11,25,11.30
2014,04,26,11,26,11.30
2014,04,26,11,27,11.40
2014,04,26,11,28,11.40
2014,04,26,11,29,11.50
2014,04,26,11,30,11.50
2014,04,26,11,31,11.40
2014,04,26,11,32,11.40
2014,04,26,11,33,11.50
2014,04,26,11,34,11.40
2014,04,26,11,35,11.40
2014,04,26,11,36,11.40
2014,04,26,11,37,11.40
2014,04,26,11,38,11.40
2014,04,26,11,39,11.30
2014,04,26,11,40,11.20
2014,04,26,11,41,11.10
2014,04,26,11,42,11.00
2014,04,26,11,43,10.80
2014,04,26,11,44,10.70
2014,04,26,11,45,10.70
2014,04,26,11,46,10.60
2014,04,26,11,47,10.60
2014,04,26,11,48,10.50
2014,04,26,11,49,10.60
2014,04,26,11,50,10.60
2014,04,26,11,51,10.70
2014,04,26,11,52,10.80
2014,04,26,11,53,10.80
2014,04,26,11,54,10.80
2014,04,26,11,55,10.90
2014,04,26,11,56,10.80
2014,04,26,11,57,10.90
2014,04,26,11,58,10.80
2014,04,26,11,59,10.80
2014,04,26,12,00,10.80
2014,04,26,12,01,10.70
2014,04,26,12,02,10.70
2014,04,26,12,03,10.70
2014,04,26,12,04,10.70
2014,04,26,12,05,10.70
2014,04,26,12,06,10.60
2014,04,26,12,07,10.60
2014,04,26,12,08,10.60
2014,04,26,12,09,10.70
2014,04,26,12,10,10.70
2014,04,26,12,11,10.70
2014,04,26,12,12,10.70
2014,04,26,12,13,10.70
2014,04,26,12,14,10.70
2014,04,26,12,15,10.70
2014,04,26,12,16,10.70
2014,04,26,12,17,10.70
2014,04,26,12,18,10.60
2014,04,26,12,19,10.60
2014,04,26,12,20,10.60
2014,04,26,12,21,10.50
2014,04,26,12,22,10.50
2014,04,26,12,23,10.40
2014,04,26,12,24,10.30
2014,04,26,12,25,10.10
2014,04,26,12,26,10.00
2014,04,26,12,27,10.00
2014,04,26,12,28,9.90
2014,04,26,12,29,9.80
2014,04,26,12,30,9.80
2014,04,26,12,31,9.80
2014,04,26,12,32,9.70
2014,04,26,12,33,9.60
2014,04,26,12,34,9.40
2014,04,26,12,35,9.30
2014,04,26,12,36,9.30
2014,04,26,12,37,9.20
2014,04,26,12,38,9.10
2014,04,26,12,39,9.00
2014,04,26,12,40,9.00
2014,04,26,12,41,9.00
2014,04,26,12,42,9.00
2014,04,26,12,43,9.10
2014,04,26,12,44,9.10
2014,04,26,12,45,9.00
2014,04,26,12,46,8.90
2014,04,26,12,47,8.90
2014,04,26,12,48,8.90
2014,04,26,12,49,8.80
2014,04,26,12,50,8.70
2014,04,26,12,51,8.70
2014,04,26,12,52,8.70
2014,04,26,12,53,8.60
2014,04,26,12,54,8.60
2014,04,26,12,55,8.60
2014,04,26,12,56,8.70
2014,04,26,12,57,8.60
2014,04,26,12,58,8.60
2014,04,26,12,59,8.60
2014,04,26,13,00,8.60
2014,04,26,13,01,8.50
2014,04,26,13,02,8.50
2014,04,26,13,03,8.40
2014,04,26,13,04,8.30
2014,04,26,13,05,8.20
2014,04,26,13,06,8.20
2014,04,26,13,07,8.20
2014,04,26,13,08,8.10
2014,04,26,13,09,8.10
2014,04,26,13,10,8.10
2014,04,26,13,11,8.10
2014,04,26,13,12,8.10
2014,04,26,13,13,8.10
2014,04,26,13,14,8.10
2014,04,26,13,15,8.10
2014,04,26,13,16,8.10
2014,04,26,13,17,8.00
2014,04,26,13,18,8.00
2014,04,26,13,19,8.00
2014,04,26,13,20,7.90
2014,04,26,13,21,7.90
2014,04,26,13,22,7.90
2014,04,26,13,23,7.80
2014,04,26,13,24,7.80
2014,04,26,13,25,7.80
2014,04,26,13,26,7.80
2014,04,26,13,27,7.80
2014,04,26,13,28,7.70
2014,04,26,13,29,7.70
2014,04,26,13,30,7.60
2014,04,26,13,31,7.60
2014,04,26,13,32,7.50
2014,04,26,13,33,7.50
2014,04,26,13,34,7.50
2014,04,26,13,35,7.50
2014,04,26,13,36,7.50
2014,04,26,13,37,7.50
2014,04,26,13,38,7.50
2014,04,26,13,39,7.50
2014,04,26,13,40,7.60
2014,04,26,13,41,7.60
2014,04,26,13,42,7.60
2014,04,26,13,43,7.60
2014,04,26,13,44,7.70
2014,04,26,13,45,7.70
2014,04,26,13,46,7.80
2014,04,26,13,47,7.90
2014,04,26,13,48,8.10
2014,04,26,13,49,8.20
2014,04,26,13,50,8.30
2014,04,26,13,51,8.30
2014,04,26,13,52,8.40
2014,04,26,13,53,8.50
2014,04,26,13,54,8.70
2014,04,26,13,55,8.80
2014,04,26,13,56,8.90
2014,04,26,13,57,9.00
2014,04,26,13,58,9.10
2014,04,26,13,59,9.10
2014,04,26,14,00,9.10
2014,04,26,14,01,9.20
2014,04,26,14,02,9.30
2014,04,26,14,03,9.30
2014,04,26,14,04,9.40
2014,04,26,14,05,9.40
2014,04,26,14,06,9.50
2014,04,26,14,07,9.50
2014,04,26,14,08,9.60
2014,04,26,14,09,9.60
2014,04,26,14,10,9.70
2014,04,26,14,11,9.70
2014,04,26,14,12,9.70
2014,04,26,14,13,9.80
2014,04,26,14,14,9.80
2014,04,26,14,15,9.80
2014,04,26,14,16,9.90
2014,04,26,14,17,10.00
2014,04,26,14,18,10.00
2014,04,26,14,19,10.10
2014,04,26,14,20,10.10
2014,04,26,14,21,10.20
2014,04,26,14,22,10.20
2014,04,26,14,23,10.20
2014,04,26,14,24,10.20
2014,04,26,14,25,10.10
2014,04,26,14,26,10.10
2014,04,26,14,27,10.10
2014,04,26,14,28,10.10
2014,04,26,14,29,10.10
2014,04,26,14,30,10.10
2014,04,26,14,31,10.00
2014,04,26,14,32,10.10
2014,04,26,14,33,10.10
2014,04,26,14,34,10.10
2014,04,26,14,35,10.20
2014,04,26,14,36,10.20
2014,04,26,14,37,10.30
2014,04,26,14,38,10.30
2014,04,26,14,39,10.30
2014,04,26,14,40,10.30
2014,04,26,14,41,10.20
2014,04,26,14,42,10.20
2014,04,26,14,43,10.20
2014,04,26,14,44,10.10
2014,04,26,14,45,10.00
2014,04,26,14,46,9.90
2014,04,26,14,47,9.90
2014,04,26,14,48,9.80
2014,04,26,14,49,9.70
2014,04,26,14,50,9.60
2014,04,26,14,51,9.50
2014,04,26,14,52,9.40
2014,04,26,14,53,9.40
2014,04,26,14,54,9.30
2014,04,26,14,55,9.20
2014,04,26,14,56,9.20
2014,04,26,14,57,9.10
2014,04,26,14,58,9.10
2014,04,26,14,59,9.00
2014,04,26,15,00,9.00
2014,04,26,15,01,8.90
2014,04,26,15,02,8.90
2014,04,26,15,03,8.90
2014,04,26,15,04,8.90
2014,04,26,15,05,8.90
2014,04,26,15,06,8.90
2014,04,26,15,07,8.90
2014,04,26,15,08,8.90
2014,04,26,15,09,8.90
2014,04,26,15,10,9.00
2014,04,26,15,11,9.00
2014,04,26,15,12,9.00
2014,04,26,15,13,9.10
2014,04,26,15,14,9.10
2014,04,26,15,15,9.10
2014,04,26,15,16,9.20
2014,04,26,15,17,9.20
2014,04,26,15,18,9.30
2014,04,26,15,19,9.30
2014,04,26,15,20,9.40
2014,04,26,15,21,9.60
2014,04,26,15,22,9.70
2014,04,26,15,23,9.80
2014,04,26,15,24,9.80
2014,04,26,15,25,9.80
2014,04,26,15,26,9.90
2014,04,26,15,27,9.90
2014,04,26,15,28,10.00
2014,04,26,15,29,10.10
2014,04,26,15,30,10.10
2014,04,26,15,31,10.10
2014,04,26,15,32,10.10
2014,04,26,15,33,10.10
2014,04,26,15,34,10.20
2014,04,26,15,35,10.20
2014,04,26,15,36,10.20
2014,04,26,15,37,10.10
2014,04,26,15,38,10.10
2014,04,26,15,39,10.10
2014,04,26,15,40,10.10
2014,04,26,15,41,10.10
2014,04,26,15,42,10.10
2014,04,26,15,43,10.10
2014,04,26,15,44,10.10
2014,04,26,15,45,10.00
2014,04,26,15,46,10.00
2014,04,26,15,47,10.00
2014,04,26,15,48,10.00
2014,04,26,15,49,10.00
2014,04,26,15,50,10.00
2014,04,26,15,51,10.00
2014,04,26,15,52,10.00
2014,04,26,15,53,10.10
2014,04,26,15,54,10.10
2014,04,26,15,55,10.10
2014,04,26,15,56,10.20
2014,04,26,15,57,10.20
2014,04,26,15,58,10.30
2014,04,26,15,59,10.30
2014,04,26,16,00,10.40
2014,04,26,16,01,10.40
2014,04,26,16,02,10.40
2014,04,26,16,03,10.50
2014,04,26,16,04,10.50
2014,04,26,16,05,10.60
2014,04,26,16,06,10.70
2014,04,26,16,07,10.70
2014,04,26,16,08,10.70
2014,04,26,16,09,10.80
2014,04,26,16,10,10.80
2014,04,26,16,11,10.90
2014,04,26,16,12,10.90
2014,04,26,16,13,10.90
2014,04,26,16,14,10.90
2014,04,26,16,15,11.00
2014,04,26,16,16,11.00
2014,04,26,16,17,11.00
2014,04,26,16,18,11.00
2014,04,26,16,19,11.00
2014,04,26,16,20,10.90
2014,04,26,16,21,10.90
2014,04,26,16,22,10.90
2014,04,26,16,23,10.90
2014,04,26,16,24,10.90
2014,04,26,16,25,10.90
2014,04,26,16,26,10.90
2014,04,26,16,27,10.90
2014,04,26,16,28,10.90
2014,04,26,16,29,10.90
2014,04,26,16,30,10.90
2014,04,26,16,31,10.90
2014,04,26,16,32,10.90
2014,04,26,16,33,10.90
2014,04,26,16,34,10.90
2014,04,26,16,35,10.90
2014,04,26,16,36,10.90
2014,04,26,16,37,10.80
2014,04,26,16,38,10.80
2014,04,26,16,39,10.70
2014,04,26,16,40,10.70
2014,04,26,16,41,10.70
2014,04,26,16,42,10.70
2014,04,26,16,43,10.70
2014,04,26,16,44,10.70
2014,04,26,16,45,10.70
2014,04,26,16,46,10.70
2014,04,26,16,47,10.70
2014,04,26,16,48,10.70
2014,04,26,16,49,10.60
2014,04,26,16,50,10.60
2014,04,26,16,51,10.50
2014,04,26,16,52,10.50
2014,04,26,16,53,10.40
2014,04,26,16,54,10.40
2014,04,26,16,55,10.40
2014,04,26,16,56,10.40
2014,04,26,16,57,10.40
2014,04,26,16,58,10.40
2014,04,26,16,59,10.40
2014,04,26,17,00,10.30
2014,04,26,17,01,10.30
2014,04,26,17,02,10.30
2014,04,26,17,03,10.30
2014,04,26,17,04,10.30
2014,04,26,17,05,10.30
2014,04,26,17,06,10.30
2014,04,26,17,07,10.20
2014,04,26,17,08,10.20
2014,04,26,17,09,10.10
2014,04,26,17,10,10.10
2014,04,26,17,11,10.10
2014,04,26,17,12,10.10
2014,04,26,17,13,10.10
2014,04,26,17,14,10.00
2014,04,26,17,15,10.00
2014,04,26,17,16,10.00
2014,04,26,17,17,9.90
2014,04,26,17,18,9.90
2014,04,26,17,19,9.90
2014,04,26,17,20,9.90
2014,04,26,17,21,9.90
2014,04,26,17,22,9.80
2014,04,26,17,23,9.80
2014,04,26,17,24,9.70
2014,04,26,17,25,9.60
2014,04,26,17,26,9.50
2014,04,26,17,27,9.50
2014,04,26,17,28,9.40
2014,04,26,17,29,9.40
2014,04,26,17,30,9.30
2014,04,26,17,31,9.30
2014,04,26,17,32,9.30
2014,04,26,17,33,9.20
2014,04,26,17,34,9.20
2014,04,26,17,35,9.20
2014,04,26,17,36,9.20
2014,04,26,17,37,9.20
2014,04,26,17,38,9.20
2014,04,26,17,39,9.10
2014,04,26,17,40,9.10
2014,04,26,17,41,9.10
2014,04,26,17,42,9.10
2014,04,26,17,43,9.10
2014,04,26,17,44,9.00
2014,04,26,17,45,9.00
2014,04,26,17,46,9.00
2014,04,26,17,47,9.00
2014,04,26,17,48,8.90
2014,04,26,17,49,8.90
2014,04,26,17,50,8.90
2014,04,26,17,51,8.90